TRANSPORTER-15 CK (66747 NORAD) Tracking and Keplerian Element Data

This shows tracking and keplerian element data for the satellite.

Feedback or suggestion? Click here.




ElementValue
Catalog66747
NameTRANSPORTER-15 CK
Epoch Orbit325
Epoch Day354.18794237
Epoch Year2025
RAAN65.8279
Inclination97.4423
Eccentricity0.0001124
Argument of Perigee221.182
Mean Anonmoly138.9329
Mean Motion15.17521943
Decay Rate4.988E-05
L11 66747U 25276CK 25354.18794237 .00004988 00000+0 25200-3 0 9992
L22 66747 97.4423 65.8279 0001124 221.1820 138.9329 15.17521943 3255



Live tracking and technical data element details for TRANSPORTER-15 CK (NORAD 66747). TRANSPORTER-15 CK can be tracked NOW for your location showing map with azimuth and elevation plus other details from your city location.







IsCatalogInMostPopularTable: catalog: 66747, numindb: 17
Update: records affected: 1



GetName: 66747 TRANSPORTER-15 CK

Hit Count: updated at: Wed, 15 Apr 2026 01:30:30 GMT